Location: Ch?enovice
(49.7164°N, 15.2160°E)
Time: 17:18:23
(UTC+00:00)

Cosmos 676 Rocket - Pass Details

Date: 23 May 2024
Orbit: 752 x 782 km, 74.0° (Epoch: 12 June)

Event Time Altitude Azimuth Distance (km) Brightness Sun altitude
Exits shadow 00:42:49 24° 222° (SW) 1,564 5.0 -15.8°
Maximum altitude 00:45:58 64° 297° (WNW) 869 4.2 -15.5°
Drops below altitude 10° 00:51:17 10° 19° (NNE) 2,349 7.9 -15.1°
Sets 00:53:43 0° 23° (NNE) 3,281 9.2 -14.9°
